Location: Tamazert
(32.6352°N, 5.2072°W)
Time: 20:08:57
(UTC+00:00)

Transit 2A Rocket - Pass Details

Date: 10 October 2022
Orbit: 589 x 911 km, 66.7° (Epoch: 28 November)

Event Time Altitude Azimuth Distance (km) Brightness Sun altitude
Rises 03:45:39 0° 204° (SSW) 2,862 - -33.3°
Reaches altitude 10° 03:47:56 10° 204° (SSW) 1,936 - -32.8°
Maximum altitude 03:52:14 88° 115° (ESE) 595 - -31.9°
Exits shadow 03:55:21 18° 26° (NNE) 1,458 6.8 -31.3°
Drops below altitude 10° 03:56:31 10° 26° (NNE) 1,922 7.5 -31.1°
Sets 03:58:46 0° 26° (NNE) 2,838 8.5 -30.6°
